Simultaneous Nadir Overpasses (SNOs) Predictions

Prediction of SNOs between LANDSAT-8 and NOAA-19 Satellite Orbit:

Table of predicted SNOs for the next 14.0 days since TLE Epoch: 11/30/2019
Index Date (LANDSAT-8) Time (LANDSAT-8) Lat,Lon (LANDSAT-8) SZA (LANDSAT-8 ) Date (NOAA-19) Time (NOAA-19) Lat,Lon (NOAA-19) SZA (NOAA-19 ) Distance(km) Time Diff (sec)
1 12/01/2019 15:40:57 -79.29, 147.29 77.98 12/01/2019 15:39:56 -79.29, 147.35 78.00 1.30 61
2 12/01/2019 16:30:23 79.29, -45.08 102.03 12/01/2019 16:30:55 79.27, -45.16 102.01 3.25 32
3 12/03/2019 22:04:08 -79.30, 51.53 77.66 12/03/2019 22:04:17 -79.27, 51.54 77.68 2.92 9
4 12/06/2019 03:37:52 79.30, 148.12 102.62 12/06/2019 03:37:40 79.30, 147.99 102.61 2.64 12
5 12/06/2019 04:27:26 -79.03, -45.91 77.74 12/06/2019 04:28:31 -79.03, -42.43 77.46 73.74 65
6 12/08/2019 09:11:38 -79.29,-115.43 77.17 12/08/2019 09:11:01 -79.32,-115.36 77.14 3.65 37
7 12/08/2019 10:01:04 79.28, 52.16 102.83 12/08/2019 10:02:01 79.27, 52.31 102.85 3.09 57
8 12/10/2019 14:45:21 79.33, -18.55 103.10 12/10/2019 14:44:24 79.32, -18.63 103.07 2.45 57
9 12/10/2019 15:34:49 -79.31, 148.93 76.93 12/10/2019 15:35:22 -79.30, 148.80 76.94 2.85 33




NCC Satellite Simultaneous Nadir Overpasses (SNOs) Prediction Service
